Regional Weather Roundup
Issued by NWS

Home | Current Version | Previous Version | Graphics & Text | Print | Product List | Glossary On
Versions: 1 2 3 4 5 6 7 8 9 10 11 12 13 14 15 16 17 18 19 20 21 22 23 24 25 26 27 28 29 30 31 32 33 34 35 36 37 38 39 40 41 42 43 44 45 46 47 48 49
000
ASUS45 KCYS 272010
RWRWY

WYOMING REGIONAL WEATHER ROUNDUP
NATIONAL WEATHER SERVICE CHEYENNE WY
100 PM MST SAT DEC 27 2014

NOTE:  "FAIR" INDICATES FEW OR NO CLOUDS BELOW 12,000 FEET
WITH NO SIGNIFICANT WEATHER AND/OR OBSTRUCTIONS TO VISIBILITY.

WYZ001-272100-
YELLOWSTONE NATIONAL PARK

CITY           SKY/WX    TMP DP  RH WIND       PRES   REMARKS
LK YELLOWSTONE   N/A     11   5  77 VRB3      30.06F
W YELLOWSTONE  NOT AVBL

$$
WYZ002>013-054>058-071-098>099-272100-
NORTHERN WYOMING

CITY           SKY/WX    TMP DP  RH WIND       PRES   REMARKS
JACKSON        CLOUDY     9   9 100 N8        30.14F HAZE    WCI  -4
CODY           FAIR      27   7  43 W14G24    29.97F WCI  15
GREYBULL       FAIR       8   6  92 SE3       30.09F
WORLAND        FAIR       4   3  96 CALM      30.07F
SHERIDAN       FAIR      17   7  64 S3        30.00F
BUFFALO        FAIR      24   7  48 CALM      29.97F
GILLETTE       FAIR      24  12  60 CALM      29.99F
HULETT           N/A    N/A N/A N/A MISG        N/A
NEWCASTLE      FAIR      25  12  58 SE5       30.04F WCI  19

$$
WYZ014>020-022>026-101>103-272100-
CENTRAL WYOMING

CITY           SKY/WX    TMP DP  RH WIND       PRES   REMARKS
BIG PINEY      FAIR       5  -2  72 CALM      30.11F
PINEDALE       FAIR      12   5  73 NW10      30.09F WCI  -1
DUBOIS         NOT AVBL
LANDER         PTSUNNY   16   3  56 CALM      30.00F
RIVERTON       FAIR      13   6  74 NW6       30.02F WCI   4
CASPER         FAIR      18   7  62 SW23G31   30.03F WCI   0
DOUGLAS        FAIR      21  10  62 W6        30.02F WCI  13

$$
WYZ021-027>030-104>119-272100-
SOUTHERN WYOMING

CITY           SKY/WX    TMP DP  RH WIND       PRES   REMARKS
EVANSTON       FAIR      18   9  68 SW16      30.16F WCI   3
FORT BRIDGER   FAIR      21  11  65 W17G23    30.17F WCI   7
ROCK SPRINGS   FAIR      14   6  70 W22       30.13F WCI  -4
DIXON          LGT SNOW  17   8  65 SW15      30.22S WCI   3
RAWLINS        FAIR      14   6  70 SW17G26   30.10R WCI  -3
SARATOGA       FAIR      18   7  62 SW12G17   30.11F WCI   5
LARAMIE        FAIR      15   4  61 SW20G25   29.98F WCI  -2
CHEYENNE       FAIR      19   5  54 SW13      30.02F WCI   6
TORRINGTON     FAIR      23  11  60 W10       30.07F WCI  12
PINE BLUFFS    FAIR      23   9  54 SW12G17   30.07F WCI  12

$$


USA.gov is the U.S. government's official web portal to all federal, state and local government web resources and services.